Terminal Aerodrome Forecast
Issued by NWS

Home | Current Version | Previous Version | Text Only | Print | Product List | Glossary On
Versions: 1 2 3 4 5 6 7 8 9 10 11 12 13
000
FTUS45 KTFX 242300
TAFCTB
TAF
KCTB 242338Z 2500/2524 24030G45KT P6SM SCT180
     FM250200 25018G30KT P6SM SKC
     FM251800 25028G35KT P6SM SCT180=

USA.gov is the U.S. government's official web portal to all federal, state and local government web resources and services.